Location: Poughquag
(41.6090°N, 73.6820°W)
Time: 14:45:52
(UTC-04:00)

Vanguard 2 - Pass Details

Date: 01 June 2020
Orbit: 552 x 2938 km, 32.9° (Epoch: 06 July)

Event Time Altitude Azimuth Distance (km) Brightness Sun altitude
Rises 18:07:28 0° 223° (SW) 6,605 12.7 22.8°
Reaches altitude 10° 18:12:47 10° 216° (SW) 5,362 12.2 21.8°
Maximum altitude 18:25:23 34° 160° (SSE) 2,999 10.4 19.5°
Drops below altitude 10° 18:34:02 10° 100° (E) 3,669 10.5 17.9°
Sets 18:36:53 0° 91° (E) 4,345 10.8 17.4°
